Location: eljas
(40.1958°N, 6.8661°W)
Time: 05:42:39
(UTC+02:00)

ISS - All Passes

Search period start: 23 July 2014 00:00
Search period end: 02 August 2014 00:00
Orbit: 412 x 420 km, 51.6° (Epoch: 23 July)

Date Brightness Start Highest point End Pass type
(mag) Time Alt. Az. Time Alt. Az. Time Alt. Az.
23 Jul - 03:30:55 10° SW 03:34:10 51° SE 03:37:27 10° ENE visible
23 Jul - 05:08:16 10° W 05:11:05 24° NNW 05:13:54 10° NNE visible
23 Jul - 06:47:20 10° NNW 06:48:45 12° N 06:50:10 10° NNE visible
23 Jul - 08:24:19 10° NNW 08:26:34 16° NNE 08:28:49 10° ENE daylight
23 Jul - 10:00:28 10° NW 10:03:49 66° NE 10:07:09 10° ESE daylight
23 Jul - 11:38:26 10° W 11:40:10 14° SW 11:41:54 10° SSW daylight
24 Jul - 02:42:51 10° SSW 02:45:46 28° SE 02:48:42 10° ENE visible
24 Jul - 04:19:20 10° W 04:22:26 34° NNW 04:25:34 10° NE visible
24 Jul - 05:58:15 10° NW 05:59:57 13° N 06:01:39 10° NNE visible
24 Jul - 07:35:58 10° NNW 07:37:49 14° NNE 07:39:39 10° NE daylight
24 Jul - 09:12:03 10° NW 09:15:15 40° NNE 09:18:27 10° ESE daylight
24 Jul - 10:49:06 10° WNW 10:51:51 23° SW 10:54:35 10° S daylight
25 Jul - 01:55:16 10° S 01:57:25 16° SE 01:59:35 10° E night (unlit)
25 Jul - 03:30:34 10° WSW 03:33:51 55° NNW 03:37:10 10° NE visible
25 Jul - 05:09:05 10° NW 05:11:10 15° NNW 05:13:16 10° NNE visible
25 Jul - 06:47:31 10° NNW 06:49:01 12° N 06:50:30 10° NNE visible
25 Jul - 08:23:42 10° NW 08:26:38 27° NNE 08:29:34 10° E daylight
25 Jul - 10:00:16 10° WNW 10:03:28 42° SW 10:06:39 10° SSE daylight
26 Jul - 02:41:59 10° SW 02:45:20 86° SE 02:48:42 10° NE visible
26 Jul - 04:19:56 10° WNW 04:22:26 19° NNW 04:24:56 10° NNE visible
26 Jul - 05:58:52 10° NNW 06:00:12 12° N 06:01:32 10° NNE visible
26 Jul - 07:35:22 10° NNW 07:37:57 20° NNE 07:40:32 10° ENE daylight
26 Jul - 09:11:39 10° NW 09:15:01 77° SW 09:18:22 10° SE daylight
27 Jul - 01:53:39 10° SSW 01:56:52 46° SE 02:00:06 10° ENE visible
27 Jul - 03:30:53 10° W 03:33:44 25° NNW 03:36:36 10° NNE visible
27 Jul - 05:09:57 10° NNW 05:11:23 12° N 05:12:49 10° NNE visible
27 Jul - 06:47:02 10° NNW 06:49:13 16° NNE 06:51:24 10° NE visible
27 Jul - 08:23:09 10° NW 08:26:30 61° NE 08:29:49 10° ESE daylight
27 Jul - 10:00:56 10° W 10:02:53 15° SW 10:04:50 10° SSW daylight
28 Jul - 01:05:38 10° SSW 01:08:28 26° SE 01:11:18 10° ENE night (unlit)
28 Jul - 02:41:58 10° W 02:45:06 37° NNW 02:48:15 10° NE visible
28 Jul - 04:20:49 10° NW 04:22:35 13° N 04:24:20 10° NNE visible
28 Jul - 05:58:40 10° NNW 06:00:26 14° N 06:02:13 10° NE visible
28 Jul - 07:34:45 10° NW 07:37:55 37° NNE 07:41:04 10° E daylight
28 Jul - 09:11:42 10° WNW 09:14:32 26° SW 09:17:22 10° SSE daylight
29 Jul - 00:18:09 10° SSE 00:20:07 15° SE 00:22:05 10° E night (unlit)
29 Jul - 01:53:12 10° WSW 01:56:30 59° NW 01:59:50 10° NE visible
29 Jul - 03:31:39 10° NW 03:33:48 16° NNW 03:35:57 10° NNE visible
29 Jul - 05:10:11 10° NNW 05:11:38 12° N 05:13:04 10° NNE visible
29 Jul - 06:46:23 10° NW 06:49:16 26° NNE 06:52:09 10° E visible
29 Jul - 08:22:54 10° WNW 08:26:08 46° SW 08:29:21 10° SSE daylight
30 Jul - 01:04:39 10° SW 01:07:59 79° SE 01:11:20 10° NE night (unlit)
30 Jul - 02:42:30 10° WNW 02:45:03 20° NNW 02:47:37 10° NNE visible
30 Jul - 04:21:29 10° NNW 04:22:48 12° N 04:24:07 10° NNE visible
30 Jul - 05:58:03 10° NNW 06:00:34 19° NNE 06:03:05 10° ENE visible
30 Jul - 07:34:17 10° NW 07:37:40 84° SW 07:41:01 10° SE daylight
31 Jul - 00:16:21 10° SSW 00:19:31 42° SE 00:22:43 10° ENE night (unlit)
31 Jul - 01:53:27 10° W 01:56:21 27° NNW 01:59:16 10° NE visible
31 Jul - 03:32:31 10° NNW 03:33:59 12° N 03:35:27 10° NNE visible
31 Jul - 05:09:42 10° NNW 05:11:49 16° NNE 05:13:55 10° NE visible
31 Jul - 06:45:48 10° NW 06:49:07 56° NNE 06:52:26 10° ESE visible
31 Jul - 08:23:24 10° W 08:25:33 16° SW 08:27:41 10° S daylight
31 Jul - 23:28:23 10° S 23:31:07 24° SE 23:33:52 10° ENE night (unlit)
01 Aug - 01:04:33 10° WSW 01:07:42 39° NNW 01:10:53 10° NE night (unlit)
01 Aug - 02:43:22 10° NW 02:45:10 14° N 02:46:58 10° NNE visible
01 Aug - 04:21:19 10° NNW 04:23:01 13° N 04:24:44 10° NE visible
01 Aug - 05:57:23 10° NW 06:00:31 35° NNE 06:03:38 10° E visible
01 Aug - 07:34:15 10° WNW 07:37:11 28° SW 07:40:06 10° SSE daylight
01 Aug - 22:41:02 10° SSE 22:42:46 14° SE 22:44:30 10° E visible
